Location: Newark
(0.5300°S, 127.4800°E)
Time: 04:03:48
(UTC+00:00)

S-56A Canister/Altair - All Passes

Search period start: 22 September 2019 00:00
Search period end: 02 October 2019 00:00
Orbit: 633 x 2499 km, 38.9° (Epoch: 21 September)

Date Brightness Start Highest point End Pass type
(mag) Time Alt. Az. Time Alt. Az. Time Alt. Az.
22 Sep - 01:12:40 10° W 01:24:02 31° NW 01:36:36 10° NNE daylight
22 Sep - 09:57:28 10° NNW 10:04:29 35° NE 10:09:30 10° E visible
22 Sep - 12:03:20 10° WNW 12:08:22 28° SW 12:12:25 10° SSE visible
22 Sep - 20:30:54 10° S 20:37:53 23° SE 20:46:51 10° E visible
22 Sep - 22:32:27 10° SW 22:43:09 85° SE 22:57:53 10° NE daylight
23 Sep - 00:38:59 10° W 00:50:17 35° NW 01:03:25 10° NNE daylight
23 Sep - 02:56:54 10° NW 03:00:01 11° NNW 03:03:06 10° NNW daylight
23 Sep - 09:24:21 10° NNW 09:31:36 31° NNE 09:36:49 10° E daylight
23 Sep - 11:29:50 10° WNW 11:35:50 38° SW 11:40:22 10° SSE visible
23 Sep - 19:59:11 10° S 20:04:49 18° SE 20:11:48 10° E visible
23 Sep - 21:59:48 10° SW 22:09:48 75° SE 22:24:01 10° NE daylight
24 Sep - 00:05:29 10° W 00:16:36 39° NW 00:30:07 10° NNE daylight
24 Sep - 02:20:27 10° NW 02:26:00 13° NNW 02:31:37 10° N daylight
24 Sep - 08:51:11 10° NNW 08:58:39 27° NNE 09:04:03 10° E daylight
24 Sep - 10:56:21 10° WNW 11:03:17 51° SW 11:08:13 10° SSE visible
24 Sep - 19:28:01 10° SSE 19:31:48 13° SE 19:36:11 10° ESE visible
24 Sep - 21:27:17 10° SW 21:36:34 65° SE 21:50:03 10° ENE daylight
24 Sep - 23:32:11 10° WSW 23:42:57 44° NW 23:56:42 10° NNE daylight
25 Sep - 01:45:07 10° NW 01:52:02 15° NNW 01:59:13 10° N daylight
25 Sep - 08:17:59 10° NNW 08:25:34 25° NNE 08:31:12 10° E daylight
25 Sep - 10:22:52 10° NW 10:30:41 67° SW 10:35:59 10° SE visible
25 Sep - 20:54:52 10° SSW 21:03:27 55° SE 21:16:00 10° ENE visible
25 Sep - 22:59:04 10° WSW 23:09:24 49° NW 23:23:13 10° NNE daylight
26 Sep - 01:10:21 10° WNW 01:18:06 17° NNW 01:26:27 10° N daylight
26 Sep - 07:44:44 10° NNW 07:52:25 23° NNE 07:58:13 10° ENE daylight
26 Sep - 09:49:23 10° NW 09:58:00 83° SW 10:03:42 10° SE visible
26 Sep - 20:22:34 10° SSW 20:30:25 45° SE 20:41:52 10° ENE visible
26 Sep - 22:26:05 10° WSW 22:35:55 55° NW 22:49:39 10° NE daylight
27 Sep - 00:35:59 10° WNW 00:44:14 19° NNW 00:53:27 10° N daylight
27 Sep - 07:11:28 10° NNW 07:19:10 21° NNE 07:25:07 10° ENE daylight
27 Sep - 09:15:52 10° NW 09:25:15 81° NE 09:31:20 10° SE daylight
27 Sep - 11:25:45 10° WSW 11:28:46 13° SW 11:31:24 10° SSW visible
27 Sep - 19:50:23 10° SSW 19:57:28 37° SE 20:07:38 10° ENE visible
27 Sep - 21:53:15 10° WSW 22:02:32 61° NW 22:16:01 10° NE daylight
28 Sep - 00:01:57 10° WNW 00:10:26 21° NNW 00:20:18 10° NNE daylight
28 Sep - 06:38:11 10° NNW 06:45:48 19° NNE 06:51:52 10° ENE daylight
28 Sep - 08:42:21 10° NW 08:52:24 69° NE 08:58:53 10° ESE daylight
28 Sep - 10:51:12 10° W 10:56:08 19° SW 11:00:05 10° S visible
28 Sep - 19:18:21 10° SSW 19:24:37 29° SE 19:33:18 10° ENE visible
28 Sep - 21:20:31 10° WSW 21:29:16 70° NW 21:42:20 10° NE daylight
28 Sep - 23:28:11 10° WNW 23:36:43 23° NNW 23:47:02 10° NNE daylight
29 Sep - 06:04:54 10° N 06:12:20 18° NNE 06:18:27 10° ENE daylight
29 Sep - 08:08:48 10° NW 08:19:26 59° NE 08:26:21 10° ESE daylight
29 Sep - 10:16:59 10° W 10:23:29 26° SW 10:28:22 10° S visible
29 Sep - 18:46:29 10° S 18:51:49 22° SE 18:58:50 10° E visible
29 Sep - 20:47:55 10° SW 20:56:05 79° NW 21:08:36 10° NE visible
29 Sep - 22:54:40 10° W 23:03:05 25° NNW 23:13:41 10° NNE daylight
30 Sep - 05:31:39 10° N 05:38:46 16° NNE 05:44:48 10° ENE daylight
30 Sep - 07:35:15 10° NW 07:46:21 52° NE 07:53:44 10° ESE daylight
30 Sep - 09:42:53 10° WNW 09:50:49 34° SW 09:56:25 10° SSE visible
30 Sep - 18:14:56 10° S 18:19:03 17° SE 18:24:07 10° E visible
30 Sep - 20:15:24 10° SW 20:23:01 90° SE 20:34:51 10° NE visible
30 Sep - 22:21:19 10° W 22:29:33 28° NNW 22:40:17 10° NNE daylight
01 Oct - 04:58:28 10° N 05:05:06 15° NNE 05:10:55 10° NE daylight
01 Oct - 07:01:41 10° NNW 07:13:12 46° NE 07:21:01 10° ESE daylight
01 Oct - 09:08:53 10° WNW 09:18:06 43° SW 09:24:22 10° SSE daylight
01 Oct - 17:44:07 10° SSE 17:46:18 12° SE 17:48:44 10° ESE visible
01 Oct - 19:42:59 10° SW 19:50:04 77° SE 20:01:04 10° NE visible
01 Oct - 21:48:10 10° W 21:56:06 31° NNW 22:06:51 10° NNE daylight
